| time (UTC) | temp F | wind direction | speed knots | gust knots | rain 1hr in | rain 24hr in | rain mn in | humidity % | barometer mb |
| 20260906162618 | 75 | 136 | 1.7 | 2.6 | 0.00 | 0.00 | 0.00 | 82 | 1022.5 |
| 20260906162112 | 74 | 102 | 0.9 | 1.7 | 0.00 | 0.00 | 0.00 | 84 | 1022.6 |
| 20260906161607 | 74 | 123 | 1.7 | 6.1 | 0.00 | 0.00 | 0.00 | 85 | 1022.6 |
| 20260906161106 | 75 | 65 | 0.0 | 2.6 | 0.00 | 0.00 | 0.00 | 85 | 1022.8 |
| 20260906160605 | 74 | 183 | 0.9 | 1.7 | 0.00 | 0.00 | 0.00 | 85 | 1022.6 |
| 20260906160104 | 73 | 4 | 0.9 | 6.1 | 0.00 | 0.00 | 0.00 | 86 | 1022.5 |
| 20260906155601 | 73 | 101 | 2.6 | 4.3 | 0.00 | 0.00 | 0.00 | 86 | 1022.6 |
| 20260906155058 | 73 | 117 | 0.0 | 2.6 | 0.00 | 0.00 | 0.00 | 86 | 1022.5 |
| 20260906154553 | 74 | 85 | 1.7 | 6.1 | 0.00 | 0.00 | 0.00 | 85 | 1022.4 |
| 20260906154051 | 73 | 5 | 1.7 | 2.6 | 0.00 | 0.00 | 0.00 | 87 | 1022.7 |
| 20260906153550 | 72 | 175 | 1.7 | 5.2 | 0.00 | 0.00 | 0.00 | 87 | 1022.7 |
| 20260906153045 | 73 | 23 | 2.6 | 2.6 | 0.00 | 0.00 | 0.00 | 87 | 1022.9 |
| 20260906152544 | 73 | 85 | 2.6 | 6.1 | 0.00 | 0.00 | 0.00 | 86 | 1022.9 |
| 20260906152039 | 73 | 53 | 4.3 | 6.1 | 0.00 | 0.00 | 0.00 | 87 | 1023.0 |
| 20260906151534 | 71 | 118 | 0.0 | 0.9 | 0.00 | 0.00 | 0.00 | 89 | 1022.9 |
| 20260906151030 | 71 | 159 | 2.6 | 4.3 | 0.00 | 0.00 | 0.00 | 89 | 1022.8 |
| 20260906150525 | 71 | 101 | 1.7 | 6.1 | 0.00 | 0.00 | 0.00 | 91 | 1022.8 |
| 20260906150020 | 71 | 106 | 1.7 | 2.6 | 0.00 | 0.00 | 0.00 | 91 | 1022.7 |
| 20260906145519 | 71 | 84 | 1.7 | 2.6 | 0.00 | 0.00 | 0.00 | 92 | 1022.5 |
| 20260906145014 | 71 | 179 | 0.9 | 0.9 | 0.00 | 0.00 | 0.00 | 92 | 1022.6 |
| 20260906144508 | 70 | 146 | 0.0 | 1.7 | 0.00 | 0.00 | 0.00 | 92 | 1022.5 |
| 20260906143958 | 70 | 115 | 0.9 | 5.2 | 0.00 | 0.00 | 0.00 | 92 | 1022.4 |
| 20260906143453 | 70 | 105 | 0.9 | 1.7 | 0.00 | 0.00 | 0.00 | 92 | 1022.6 |
| 20260906142949 | 70 | 77 | 2.6 | 4.3 | 0.00 | 0.00 | 0.00 | 93 | 1022.7 |
| 20260906142449 | 69 | 97 | 0.0 | 4.3 | 0.00 | 0.00 | 0.00 | 94 | 1022.6 |
| 20260906141943 | 69 | 137 | 3.5 | 5.2 | 0.00 | 0.00 | 0.00 | 94 | 1022.5 |
| 20260906141437 | 69 | 115 | 1.7 | 4.3 | 0.00 | 0.00 | 0.00 | 95 | 1022.9 |
| 20260906140932 | 69 | 30 | 2.6 | 6.1 | 0.00 | 0.00 | 0.00 | 95 | 1022.6 |
| 20260906140426 | 69 | 134 | 0.9 | 1.7 | 0.00 | 0.00 | 0.00 | 96 | 1022.7 |
| 20260906135919 | 69 | 115 | 0.0 | 5.2 | 0.00 | 0.00 | 0.00 | 96 | 1022.7 |
| 20260906135418 | 69 | 155 | 1.7 | 2.6 | 0.00 | 0.00 | 0.00 | 96 | 1022.7 |
| 20260906134914 | 69 | 50 | 2.6 | 2.6 | 0.00 | 0.00 | 0.00 | 97 | 1022.6 |
| 20260906134409 | 69 | 82 | 0.0 | 0.9 | 0.00 | 0.00 | 0.00 | 97 | 1022.3 |
| 20260906133904 | 68 | 130 | 0.9 | 1.7 | 0.00 | 0.00 | 0.00 | 97 | 1022.5 |
| 20260906133400 | 68 | 50 | 2.6 | 4.3 | 0.00 | 0.00 | 0.00 | 98 | 1022.2 |
| 20260906132855 | 68 | 86 | 0.0 | 1.7 | 0.00 | 0.00 | 0.00 | 98 | 1022.4 |
| 20260906132350 | 68 | 121 | 0.9 | 4.3 | 0.00 | 0.00 | 0.00 | 98 | 1022.0 |
| 20260906131846 | 68 | 42 | 1.7 | 5.2 | 0.00 | 0.00 | 0.00 | 99 | 1022.3 |
| 20260906131341 | 68 | 63 | 0.9 | 4.3 | 0.00 | 0.00 | 0.00 | 99 | 1022.0 |
| 20260906130837 | 68 | 73 | 2.6 | 4.3 | 0.00 | 0.00 | 0.00 | 99 | 1022.2 |
| 20260906130336 | 68 | 118 | 0.9 | 5.2 | 0.00 | 0.00 | 0.00 | 99 | 1022.0 |
| 20260906125835 | 68 | 129 | 0.0 | 1.7 | 0.00 | 0.00 | 0.00 | 99 | 1022.2 |
| 20260906125332 | 68 | 107 | 0.9 | 1.7 | 0.00 | 0.00 | 0.00 | 99 | 1021.9 |
| 20260906124827 | 68 | 79 | 0.9 | 1.7 | 0.00 | 0.00 | 0.00 | 99 | 1022.2 |
| 20260906124324 | 68 | 111 | 0.0 | 0.0 | 0.00 | 0.00 | 0.00 | 99 | 1022.0 |
| 20260906123823 | 67 | 70 | 0.0 | 1.7 | 0.00 | 0.00 | 0.00 | 99 | 1021.9 |
| 20260906123318 | 67 | 40 | 0.0 | 0.0 | 0.00 | 0.00 | 0.00 | 99 | 1021.9 |
| 20260906122817 | 67 | 29 | 0.9 | 0.9 | 0.00 | 0.00 | 0.00 | 99 | 1022.2 |
| 20260906122312 | 67 | 56 | 1.7 | 2.6 | 0.00 | 0.00 | 0.00 | 99 | 1022.0 |
| 20260906121809 | 67 | 78 | 0.9 | 1.7 | 0.00 | 0.00 | 0.00 | 99 | 1022.0 |
| 20260906121305 | 67 | 92 | 0.0 | 1.7 | 0.00 | 0.00 | 0.00 | 99 | 1021.8 |
| 20260906120801 | 67 | 27 | 0.9 | 2.6 | 0.00 | 0.00 | 0.00 | 99 | 1021.9 |
| 20260906120256 | 67 | 30 | 1.7 | 1.7 | 0.00 | 0.00 | 0.00 | 99 | 1021.7 |
| 20260906115752 | 67 | 70 | 0.9 | 2.6 | 0.00 | 0.00 | 0.00 | 99 | 1021.6 |
| 20260906115242 | 67 | 69 | 0.0 | 0.0 | 0.00 | 0.00 | 0.00 | 99 | 1021.7 |
| 20260906114741 | 67 | 75 | 0.0 | 0.0 | 0.00 | 0.00 | 0.00 | 99 | 1021.7 |
| 20260906114236 | 67 | 77 | 0.0 | 0.0 | 0.00 | 0.00 | 0.00 | 99 | 1021.7 |
| 20260906113731 | 67 | 1 | 0.0 | 0.9 | 0.00 | 0.00 | 0.00 | 99 | 1021.6 |
| 20260906113230 | 67 | 42 | 0.0 | 0.9 | 0.00 | 0.00 | 0.00 | 99 | 1021.5 |
| 20260906112725 | 67 | 61 | 0.0 | 0.9 | 0.00 | 0.00 | 0.00 | 99 | 1021.6 |
| 20260906112222 | 67 | 66 | 0.0 | 1.7 | 0.00 | 0.00 | 0.00 | 99 | 1021.6 |
| 20260906111721 | 67 | 34 | 0.9 | 0.9 | 0.00 | 0.00 | 0.00 | 99 | 1021.4 |
| 20260906111216 | 67 | 82 | 0.0 | 0.9 | 0.00 | 0.00 | 0.00 | 99 | 1021.3 |
| 20260906110711 | 67 | 81 | 0.0 | 0.9 | 0.00 | 0.00 | 0.00 | 98 | 1021.3 |
| 20260906110206 | 67 | 85 | 0.0 | 0.9 | 0.00 | 0.00 | 0.00 | 98 | 1021.2 |
| 20260906105700 | 67 | 51 | 0.0 | 0.0 | 0.00 | 0.00 | 0.00 | 98 | 1021.4 |
| 20260906105156 | 67 | 91 | 0.0 | 0.9 | 0.00 | 0.00 | 0.00 | 98 | 1021.2 |
| 20260906104655 | 68 | 66 | 0.0 | 0.9 | 0.00 | 0.00 | 0.00 | 98 | 1021.2 |
| 20260906104149 | 68 | 25 | 0.0 | 0.9 | 0.00 | 0.00 | 0.00 | 98 | 1021.1 |
| 20260906103647 | 68 | 101 | 0.0 | 0.9 | 0.00 | 0.00 | 0.00 | 98 | 1021.2 |
| 20260906103142 | 68 | 88 | 0.0 | 0.9 | 0.00 | 0.00 | 0.00 | 98 | 1021.1 |
| 20260906102637 | 68 | 123 | 0.0 | 0.0 | 0.00 | 0.00 | 0.00 | 97 | 1021.1 |
| 20260906102132 | 68 | 57 | 0.9 | 4.3 | 0.00 | 0.00 | 0.00 | 97 | 1021.2 |
| 20260906101631 | 68 | 102 | 0.0 | 1.7 | 0.00 | 0.00 | 0.00 | 97 | 1021.0 |
| 20260906101126 | 68 | 30 | 1.7 | 2.6 | 0.00 | 0.00 | 0.00 | 97 | 1021.1 |
| 20260906100622 | 68 | 114 | 0.0 | 1.7 | 0.00 | 0.00 | 0.00 | 97 | 1021.1 |
| 20260906100121 | 68 | 182 | 0.9 | 0.9 | 0.00 | 0.00 | 0.00 | 97 | 1020.8 |
| 20260906095616 | 68 | 38 | 2.6 | 2.6 | 0.00 | 0.00 | 0.00 | 97 | 1020.7 |
| 20260906095112 | 68 | 70 | 0.0 | 1.7 | 0.00 | 0.00 | 0.00 | 97 | 1020.6 |
| 20260906094611 | 69 | 52 | 0.0 | 0.9 | 0.00 | 0.00 | 0.00 | 97 | 1020.3 |
| 20260906094107 | 69 | 95 | 0.0 | 1.7 | 0.00 | 0.00 | 0.00 | 96 | 1020.4 |
| 20260906093602 | 69 | 78 | 0.9 | 0.9 | 0.00 | 0.00 | 0.00 | 96 | 1020.4 |
| 20260906093056 | 69 | 120 | 0.9 | 1.7 | 0.00 | 0.00 | 0.00 | 96 | 1020.3 |
| 20260906092552 | 69 | 43 | 2.6 | 2.6 | 0.00 | 0.00 | 0.00 | 96 | 1020.4 |
| 20260906092041 | 69 | 78 | 0.0 | 0.9 | 0.00 | 0.00 | 0.00 | 96 | 1020.3 |
| 20260906091537 | 69 | 112 | 0.0 | 5.2 | 0.00 | 0.00 | 0.00 | 96 | 1020.3 |
| 20260906091033 | 69 | 55 | 0.9 | 0.9 | 0.00 | 0.00 | 0.00 | 96 | 1020.4 |
| 20260906090533 | 69 | 120 | 1.7 | 1.7 | 0.00 | 0.00 | 0.00 | 96 | 1020.3 |
| 20260906090028 | 69 | 119 | 0.9 | 4.3 | 0.00 | 0.00 | 0.00 | 96 | 1020.4 |
| 20260906085522 | 69 | 32 | 0.9 | 1.7 | 0.00 | 0.00 | 0.00 | 96 | 1020.2 |
| 20260906085021 | 69 | 112 | 0.9 | 1.7 | 0.00 | 0.00 | 0.00 | 96 | 1020.4 |
| 20260906084516 | 69 | 31 | 0.9 | 4.3 | 0.00 | 0.00 | 0.00 | 96 | 1020.4 |
| 20260906084014 | 69 | 264 | 0.0 | 0.9 | 0.00 | 0.00 | 0.00 | 96 | 1020.5 |
| 20260906083511 | 69 | 69 | 0.9 | 5.2 | 0.00 | 0.00 | 0.00 | 96 | 1020.5 |
| 20260906083010 | 69 | 41 | 0.0 | 4.3 | 0.00 | 0.00 | 0.00 | 96 | 1020.5 |
| 20260906082505 | 69 | 120 | 0.0 | 1.7 | 0.00 | 0.00 | 0.00 | 96 | 1020.6 |
| 20260906082001 | 69 | 40 | 1.7 | 2.6 | 0.00 | 0.00 | 0.00 | 95 | 1020.5 |
| 20260906081456 | 69 | 61 | 0.0 | 1.7 | 0.00 | 0.00 | 0.00 | 95 | 1020.5 |
| 20260906080952 | 69 | 6 | 0.9 | 2.6 | 0.00 | 0.00 | 0.00 | 95 | 1020.6 |
| 20260906080449 | 69 | 25 | 0.9 | 1.7 | 0.00 | 0.00 | 0.00 | 95 | 1020.5 |
| 20260906075949 | 69 | 80 | 0.0 | 0.9 | 0.00 | 0.00 | 0.00 | 95 | 1020.5 |
| 20260906075444 | 69 | 341 | 0.9 | 2.6 | 0.00 | 0.00 | 0.00 | 95 | 1020.6 |
| 20260906074938 | 69 | 62 | 0.0 | 1.7 | 0.00 | 0.00 | 0.00 | 95 | 1020.7 |
| 20260906074433 | 69 | 85 | 0.0 | 0.9 | 0.00 | 0.00 | 0.00 | 95 | 1020.7 |
| 20260906073931 | 69 | 83 | 0.0 | 0.9 | 0.00 | 0.00 | 0.00 | 95 | 1020.6 |
| 20260906073426 | 70 | 80 | 0.0 | 0.9 | 0.00 | 0.00 | 0.00 | 94 | 1020.6 |
| 20260906072923 | 70 | 79 | 0.0 | 0.9 | 0.00 | 0.00 | 0.00 | 94 | 1020.7 |
| 20260906072418 | 70 | 91 | 0.9 | 0.9 | 0.00 | 0.00 | 0.00 | 94 | 1020.8 |
| 20260906071914 | 70 | 36 | 0.9 | 0.9 | 0.00 | 0.00 | 0.00 | 94 | 1020.8 |
| 20260906071409 | 70 | 76 | 0.9 | 1.7 | 0.00 | 0.00 | 0.00 | 94 | 1020.8 |
| 20260906070905 | 70 | 76 | 0.9 | 0.9 | 0.00 | 0.00 | 0.00 | 93 | 1020.8 |
| 20260906070401 | 70 | 103 | 0.0 | 0.9 | 0.00 | 0.00 | 0.00 | 93 | 1020.8 |
| 20260906065856 | 71 | 50 | 0.0 | 2.6 | 0.00 | 0.00 | 0.00 | 93 | 1020.5 |
| 20260906065350 | 71 | 19 | 0.9 | 0.9 | 0.00 | 0.00 | 0.00 | 93 | 1020.6 |
| 20260906064847 | 71 | 7 | 0.0 | 4.3 | 0.00 | 0.00 | 0.00 | 93 | 1020.7 |
| 20260906064343 | 71 | 82 | 0.9 | 1.7 | 0.00 | 0.00 | 0.00 | 93 | 1020.8 |
| 20260906063842 | 71 | 97 | 0.0 | 1.7 | 0.00 | 0.00 | 0.00 | 93 | 1020.9 |
| 20260906063338 | 71 | 36 | 0.9 | 1.7 | 0.00 | 0.00 | 0.00 | 93 | 1020.6 |
| 20260906062833 | 71 | 45 | 0.9 | 1.7 | 0.00 | 0.00 | 0.00 | 92 | 1020.7 |
| 20260906062332 | 71 | 32 | 0.9 | 2.6 | 0.00 | 0.00 | 0.00 | 93 | 1020.9 |
| 20260906061828 | 71 | 35 | 0.9 | 2.6 | 0.00 | 0.00 | 0.00 | 93 | 1021.1 |
| 20260906061324 | 71 | 57 | 0.9 | 0.9 | 0.00 | 0.00 | 0.00 | 92 | 1020.9 |
| 20260906060818 | 71 | 102 | 0.0 | 0.9 | 0.00 | 0.00 | 0.00 | 92 | 1020.9 |
| 20260906060317 | 71 | 97 | 0.0 | 1.7 | 0.00 | 0.00 | 0.00 | 92 | 1020.8 |
| 20260906055812 | 71 | 64 | 0.9 | 0.9 | 0.00 | 0.00 | 0.00 | 92 | 1020.8 |
| 20260906055307 | 71 | 85 | 0.0 | 2.6 | 0.00 | 0.00 | 0.00 | 92 | 1020.8 |
| 20260906054802 | 71 | 71 | 0.0 | 1.7 | 0.00 | 0.00 | 0.00 | 92 | 1021.0 |
| 20260906054258 | 71 | 66 | 0.9 | 0.9 | 0.00 | 0.00 | 0.00 | 91 | 1020.9 |
| 20260906053754 | 71 | 44 | 0.9 | 1.7 | 0.00 | 0.00 | 0.00 | 91 | 1021.0 |
| 20260906053250 | 72 | 66 | 0.0 | 0.0 | 0.00 | 0.00 | 0.00 | 91 | 1020.9 |
| 20260906052744 | 72 | 48 | 0.0 | 0.0 | 0.00 | 0.00 | 0.00 | 91 | 1020.7 |
| 20260906052240 | 72 | 71 | 0.0 | 0.0 | 0.00 | 0.00 | 0.00 | 91 | 1020.9 |
| 20260906051738 | 72 | 85 | 0.0 | 0.0 | 0.00 | 0.00 | 0.00 | 91 | 1020.7 |
| 20260906051237 | 72 | 82 | 0.0 | 0.0 | 0.00 | 0.00 | 0.00 | 90 | 1021.0 |
| 20260906050732 | 72 | 65 | 0.0 | 0.0 | 0.00 | 0.00 | 0.00 | 90 | 1020.9 |
| 20260906050227 | 72 | 60 | 0.0 | 0.0 | 0.00 | 0.00 | 0.00 | 90 | 1020.9 |
| 20260906045726 | 72 | 68 | 0.0 | 0.0 | 0.00 | 0.00 | 0.00 | 90 | 1021.1 |
| 20260906045221 | 72 | 87 | 0.0 | 0.0 | 0.00 | 0.00 | 0.00 | 90 | 1021.0 |
| 20260906044717 | 72 | 83 | 0.0 | 0.0 | 0.00 | 0.00 | 0.00 | 90 | 1021.1 |
| 20260906044212 | 72 | 77 | 0.0 | 0.0 | 0.00 | 0.00 | 0.00 | 90 | 1021.0 |
| 20260906043708 | 72 | 56 | 0.0 | 0.0 | 0.00 | 0.00 | 0.00 | 90 | 1021.0 |
| 20260906043204 | 72 | 65 | 0.0 | 0.0 | 0.00 | 0.00 | 0.00 | 90 | 1021.0 |
| 20260906042703 | 72 | 77 | 0.0 | 0.0 | 0.00 | 0.00 | 0.00 | 90 | 1021.1 |
| 20260906042157 | 72 | 83 | 0.0 | 0.0 | 0.00 | 0.00 | 0.00 | 90 | 1021.0 |
| 20260906041653 | 72 | 81 | 0.0 | 0.0 | 0.00 | 0.00 | 0.00 | 90 | 1021.2 |
| 20260906041148 | 72 | 82 | 0.0 | 0.0 | 0.00 | 0.00 | 0.00 | 90 | 1021.2 |
| 20260906040643 | 72 | 77 | 0.0 | 0.0 | 0.00 | 0.00 | 0.00 | 90 | 1021.1 |
| 20260906040139 | 72 | 81 | 0.0 | 0.0 | 0.00 | 0.00 | 0.00 | 89 | 1021.5 |
| 20260906035633 | 72 | 82 | 0.0 | 0.0 | 0.00 | 0.00 | 0.00 | 89 | 1021.1 |
| 20260906035129 | 72 | 82 | 0.0 | 0.0 | 0.00 | 0.00 | 0.00 | 89 | 1021.2 |
| 20260906034624 | 72 | 82 | 0.0 | 0.0 | 0.00 | 0.00 | 0.00 | 89 | 1021.2 |
| 20260906034118 | 72 | 63 | 0.0 | 0.0 | 0.00 | 0.00 | 0.00 | 89 | 1021.1 |
| 20260906033614 | 72 | 84 | 0.0 | 0.0 | 0.00 | 0.00 | 0.00 | 89 | 1021.1 |
| 20260906033109 | 72 | 82 | 0.0 | 0.0 | 0.00 | 0.00 | 0.00 | 89 | 1021.2 |
| 20260906032606 | 72 | 67 | 0.0 | 0.0 | 0.00 | 0.00 | 0.00 | 89 | 1021.2 |
| 20260906032105 | 72 | 78 | 0.0 | 0.0 | 0.00 | 0.00 | 0.00 | 89 | 1021.1 |
| 20260906031601 | 72 | 78 | 0.0 | 0.0 | 0.00 | 0.00 | 0.00 | 88 | 1021.2 |
| 20260906031056 | 72 | 82 | 0.0 | 0.0 | 0.00 | 0.00 | 0.00 | 88 | 1021.4 |
| 20260906030555 | 73 | 81 | 0.0 | 0.0 | 0.00 | 0.00 | 0.00 | 88 | 1021.4 |
| 20260906030055 | 73 | 82 | 0.0 | 0.0 | 0.00 | 0.00 | 0.00 | 88 | 1021.5 |
| 20260906025550 | 73 | 78 | 0.0 | 0.0 | 0.00 | 0.00 | 0.00 | 87 | 1021.4 |
| 20260906025048 | 73 | 59 | 0.0 | 0.0 | 0.00 | 0.00 | 0.00 | 87 | 1021.0 |
| 20260906024544 | 73 | 60 | 0.0 | 0.0 | 0.00 | 0.00 | 0.00 | 86 | 1021.2 |
| 20260906024043 | 73 | 48 | 0.0 | 0.0 | 0.00 | 0.00 | 0.00 | 86 | 1021.0 |
| 20260906023540 | 73 | 85 | 0.0 | 0.9 | 0.00 | 0.00 | 0.00 | 86 | 1020.8 |
| 20260906023034 | 74 | 95 | 0.0 | 0.0 | 0.00 | 0.00 | 0.00 | 85 | 1020.7 |
| 20260906022530 | 74 | 123 | 0.0 | 0.0 | 0.00 | 0.00 | 0.00 | 85 | 1020.8 |
| 20260906022025 | 74 | 130 | 0.0 | 0.0 | 0.00 | 0.00 | 0.00 | 85 | 1020.7 |
| 20260906021520 | 74 | 145 | 0.0 | 0.0 | 0.00 | 0.00 | 0.00 | 85 | 1020.6 |
| 20260906021014 | 73 | 125 | 0.0 | 0.0 | 0.00 | 0.00 | 0.00 | 85 | 1020.4 |
| 20260906020514 | 74 | 121 | 0.0 | 0.0 | 0.00 | 0.00 | 0.00 | 85 | 1020.3 |
| 20260906020013 | 74 | 75 | 0.9 | 0.9 | 0.00 | 0.00 | 0.00 | 85 | 1020.0 |
| 20260906015513 | 74 | 93 | 0.0 | 0.0 | 0.00 | 0.00 | 0.00 | 84 | 1019.8 |
| 20260906015012 | 74 | 86 | 0.0 | 0.9 | 0.00 | 0.00 | 0.00 | 84 | 1019.9 |
| 20260906014507 | 74 | 62 | 0.9 | 0.9 | 0.00 | 0.00 | 0.00 | 84 | 1019.7 |
| 20260906014003 | 75 | 47 | 0.0 | 0.9 | 0.00 | 0.00 | 0.00 | 83 | 1019.6 |
| 20260906013458 | 75 | 102 | 0.0 | 0.9 | 0.00 | 0.00 | 0.00 | 83 | 1019.5 |
| 20260906012954 | 75 | 73 | 0.9 | 1.7 | 0.00 | 0.00 | 0.00 | 82 | 1019.6 |
| 20260906012449 | 75 | 139 | 0.9 | 0.9 | 0.00 | 0.00 | 0.00 | 82 | 1019.3 |
| 20260906011948 | 75 | 104 | 0.0 | 0.9 | 0.00 | 0.00 | 0.00 | 82 | 1019.4 |
| 20260906011444 | 76 | 111 | 0.9 | 0.9 | 0.00 | 0.00 | 0.00 | 81 | 1019.5 |
| 20260906010939 | 76 | 113 | 0.0 | 2.6 | 0.00 | 0.00 | 0.00 | 80 | 1019.4 |
| 20260906010434 | 76 | 123 | 0.0 | 0.9 | 0.00 | 0.00 | 0.00 | 80 | 1019.3 |
| 20260906005930 | 77 | 100 | 0.9 | 2.6 | 0.00 | 0.00 | 0.00 | 80 | 1019.3 |
| 20260906005430 | 77 | 111 | 0.0 | 4.3 | 0.00 | 0.00 | 0.00 | 79 | 1018.9 |
| 20260906004928 | 77 | 89 | 1.7 | 2.6 | 0.00 | 0.00 | 0.00 | 79 | 1018.8 |
| 20260906004422 | 77 | 95 | 0.9 | 1.7 | 0.00 | 0.00 | 0.00 | 79 | 1018.4 |
| 20260906003919 | 78 | 111 | 0.9 | 4.3 | 0.00 | 0.00 | 0.00 | 78 | 1018.5 |
| 20260906003414 | 78 | 95 | 0.9 | 5.2 | 0.00 | 0.00 | 0.00 | 78 | 1018.5 |
| 20260906002909 | 79 | 113 | 2.6 | 5.2 | 0.00 | 0.00 | 0.00 | 77 | 1018.9 |
| 20260906002409 | 79 | 91 | 0.0 | 1.7 | 0.00 | 0.00 | 0.00 | 75 | 1018.9 |
| 20260906001904 | 80 | 82 | 0.9 | 0.9 | 0.00 | 0.00 | 0.00 | 74 | 1018.9 |
| 20260906001400 | 80 | 108 | 0.0 | 6.1 | 0.00 | 0.00 | 0.00 | 74 | 1019.0 |
| 20260906000900 | 80 | 39 | 1.7 | 6.1 | 0.00 | 0.00 | 0.00 | 73 | 1018.8 |
| 20260906000400 | 80 | 18 | 0.9 | 6.1 | 0.00 | 0.00 | 0.00 | 73 | 1019.0 |
| 20260905235855 | 81 | 92 | 0.9 | 2.6 | 0.00 | 0.00 | 0.00 | 72 | 1018.6 |
| 20260905235349 | 81 | 74 | 0.9 | 1.7 | 0.00 | 0.00 | 0.00 | 72 | 1018.6 |
| 20260905234845 | 81 | 79 | 0.0 | 6.1 | 0.00 | 0.00 | 0.00 | 71 | 1018.4 |
| 20260905234340 | 81 | 43 | 2.6 | 7.0 | 0.00 | 0.00 | 0.00 | 71 | 1018.5 |
| 20260905233835 | 81 | 84 | 0.0 | 2.6 | 0.00 | 0.00 | 0.00 | 71 | 1018.3 |
| 20260905233330 | 82 | 354 | 0.9 | 6.1 | 0.00 | 0.00 | 0.00 | 70 | 1018.2 |
| 20260905232829 | 82 | 288 | 1.7 | 4.3 | 0.00 | 0.00 | 0.00 | 70 | 1018.2 |
| 20260905232325 | 82 | 195 | 1.7 | 5.2 | 0.00 | 0.00 | 0.00 | 70 | 1018.1 |
| 20260905231821 | 83 | 77 | 0.0 | 6.1 | 0.00 | 0.00 | 0.00 | 68 | 1018.2 |
| 20260905231316 | 83 | 140 | 1.7 | 6.1 | 0.00 | 0.00 | 0.00 | 67 | 1017.8 |
| 20260905230812 | 83 | 15 | 2.6 | 4.3 | 0.00 | 0.00 | 0.00 | 66 | 1017.9 |
| 20260905230310 | 83 | 95 | 0.0 | 5.2 | 0.00 | 0.00 | 0.00 | 65 | 1018.1 |
| 20260905225809 | 84 | 27 | 3.5 | 6.1 | 0.00 | 0.00 | 0.00 | 65 | 1018.1 |
| 20260905225306 | 84 | 112 | 1.7 | 4.3 | 0.00 | 0.00 | 0.00 | 65 | 1018.3 |
| 20260905224804 | 84 | 45 | 1.7 | 8.7 | 0.00 | 0.00 | 0.00 | 66 | 1018.3 |
| 20260905224300 | 84 | 202 | 0.9 | 2.6 | 0.00 | 0.00 | 0.00 | 66 | 1018.3 |
| 20260905223755 | 84 | 256 | 2.6 | 2.6 | 0.00 | 0.00 | 0.00 | 65 | 1018.2 |
| 20260905223252 | 84 | 223 | 1.7 | 5.2 | 0.00 | 0.00 | 0.00 | 65 | 1018.2 |
| 20260905222747 | 84 | 173 | 2.6 | 4.3 | 0.00 | 0.00 | 0.00 | 65 | 1018.3 |
| 20260905222246 | 85 | 125 | 0.9 | 2.6 | 0.00 | 0.00 | 0.00 | 65 | 1018.2 |
| 20260905221742 | 84 | 188 | 0.0 | 6.1 | 0.00 | 0.00 | 0.00 | 65 | 1018.1 |
| 20260905221239 | 85 | 203 | 2.6 | 5.2 | 0.00 | 0.00 | 0.00 | 64 | 1018.0 |
| 20260905220735 | 85 | 119 | 0.9 | 2.6 | 0.00 | 0.00 | 0.00 | 65 | 1018.1 |
| 20260905220231 | 85 | 258 | 0.9 | 4.3 | 0.00 | 0.00 | 0.00 | 65 | 1017.8 |
| 20260905215730 | 85 | 353 | 2.6 | 7.0 | 0.00 | 0.00 | 0.00 | 65 | 1017.8 |
| 20260905215226 | 85 | 8 | 3.5 | 6.1 | 0.00 | 0.00 | 0.00 | 66 | 1018.0 |
| 20260905214721 | 85 | 23 | 2.6 | 7.8 | 0.00 | 0.00 | 0.00 | 66 | 1018.1 |
| 20260905214217 | 86 | 41 | 0.9 | 4.3 | 0.00 | 0.00 | 0.00 | 65 | 1018.1 |
| 20260905213712 | 86 | 128 | 0.0 | 6.1 | 0.00 | 0.00 | 0.00 | 65 | 1018.2 |
| 20260905213208 | 85 | 35 | 2.6 | 7.0 | 0.00 | 0.00 | 0.00 | 65 | 1018.2 |
| 20260905212703 | 85 | 100 | 1.7 | 6.1 | 0.00 | 0.00 | 0.00 | 66 | 1018.2 |
| 20260905212202 | 85 | 126 | 2.6 | 4.3 | 0.00 | 0.00 | 0.00 | 64 | 1018.3 |
| 20260905211657 | 85 | 125 | 1.7 | 8.7 | 0.00 | 0.00 | 0.00 | 65 | 1018.2 |
| 20260905211152 | 85 | 156 | 0.9 | 5.2 | 0.00 | 0.00 | 0.00 | 66 | 1018.5 |
| 20260905210649 | 84 | 198 | 0.9 | 5.2 | 0.00 | 0.00 | 0.00 | 67 | 1018.5 |
| 20260905210149 | 84 | 310 | 1.7 | 2.6 | 0.00 | 0.00 | 0.00 | 67 | 1019.2 |
| 20260905205648 | 84 | 351 | 1.7 | 2.6 | 0.00 | 0.00 | 0.00 | 69 | 1019.0 |
| 20260905205147 | 83 | 215 | 0.0 | 4.3 | 0.00 | 0.00 | 0.00 | 71 | 1019.3 |
| 20260905204647 | 83 | 230 | 0.9 | 1.7 | 0.00 | 0.00 | 0.00 | 68 | 1019.6 |
| 20260905204142 | 83 | 203 | 0.9 | 5.2 | 0.00 | 0.00 | 0.00 | 70 | 1019.5 |
| 20260905203637 | 84 | 306 | 0.9 | 2.6 | 0.00 | 0.00 | 0.00 | 70 | 1019.4 |
| 20260905203132 | 83 | 231 | 0.9 | 2.6 | 0.00 | 0.00 | 0.00 | 69 | 1019.7 |
| 20260905202628 | 83 | 27 | 0.0 | 1.7 | 0.00 | 0.00 | 0.00 | 70 | 1019.5 |
| 20260905202123 | 83 | 170 | 0.0 | 1.7 | 0.00 | 0.00 | 0.00 | 70 | 1019.7 |
| 20260905201618 | 83 | 327 | 3.5 | 5.2 | 0.00 | 0.00 | 0.00 | 71 | 1019.8 |
| 20260905201118 | 84 | 314 | 0.9 | 4.3 | 0.00 | 0.00 | 0.00 | 71 | 1019.9 |
| 20260905200614 | 84 | 201 | 0.0 | 0.9 | 0.00 | 0.00 | 0.00 | 70 | 1019.8 |
| 20260905200109 | 83 | 189 | 0.0 | 0.9 | 0.00 | 0.00 | 0.00 | 70 | 1019.9 |
| 20260905195601 | 83 | 133 | 0.9 | 2.6 | 0.00 | 0.00 | 0.00 | 70 | 1019.9 |
| 20260905195057 | 83 | 65 | 1.7 | 2.6 | 0.00 | 0.00 | 0.00 | 70 | 1020.0 |
| 20260905194557 | 83 | 157 | 0.9 | 2.6 | 0.00 | 0.00 | 0.00 | 71 | 1020.3 |
| 20260905194056 | 83 | 157 | 0.0 | 0.9 | 0.00 | 0.00 | 0.00 | 71 | 1020.1 |
| 20260905193551 | 83 | 14 | 2.6 | 2.6 | 0.00 | 0.00 | 0.00 | 70 | 1020.1 |
| 20260905193046 | 83 | 184 | 0.0 | 0.9 | 0.00 | 0.00 | 0.00 | 71 | 1020.3 |
| 20260905192542 | 82 | 185 | 0.9 | 2.6 | 0.00 | 0.00 | 0.00 | 71 | 1020.2 |
| 20260905192038 | 82 | 321 | 1.7 | 2.6 | 0.00 | 0.00 | 0.00 | 71 | 1020.3 |
| 20260905191536 | 83 | 187 | 0.9 | 1.7 | 0.00 | 0.00 | 0.00 | 71 | 1020.2 |
| 20260905191036 | 82 | 78 | 0.9 | 1.7 | 0.00 | 0.00 | 0.00 | 73 | 1020.3 |
| 20260905190533 | 83 | 132 | 1.7 | 2.6 | 0.00 | 0.00 | 0.00 | 73 | 1020.4 |
| 20260905190028 | 82 | 127 | 0.9 | 2.6 | 0.00 | 0.00 | 0.00 | 73 | 1020.3 |
| 20260905185527 | 81 | 181 | 0.0 | 0.9 | 0.00 | 0.00 | 0.00 | 73 | 1020.3 |
| 20260905185026 | 81 | 7 | 1.7 | 4.3 | 0.00 | 0.00 | 0.00 | 75 | 1020.3 |
| 20260905184521 | 81 | 102 | 0.9 | 4.3 | 0.00 | 0.00 | 0.00 | 75 | 1020.1 |
| 20260905184019 | 81 | 18 | 2.6 | 2.6 | 0.00 | 0.00 | 0.00 | 74 | 1020.3 |
| 20260905183514 | 81 | 159 | 0.9 | 1.7 | 0.00 | 0.00 | 0.00 | 75 | 1020.0 |
| 20260905183009 | 82 | 154 | 0.9 | 1.7 | 0.00 | 0.00 | 0.00 | 75 | 1020.4 |
| 20260905182509 | 80 | 147 | 0.0 | 4.3 | 0.00 | 0.00 | 0.00 | 77 | 1020.2 |
| 20260905182003 | 80 | 123 | 0.0 | 2.6 | 0.00 | 0.00 | 0.00 | 77 | 1020.2 |
| 20260905181458 | 79 | 64 | 0.9 | 2.6 | 0.00 | 0.00 | 0.00 | 78 | 1020.4 |
| 20260905180957 | 79 | 31 | 3.5 | 5.2 | 0.00 | 0.00 | 0.00 | 79 | 1020.5 |
| 20260905180452 | 80 | 136 | 0.0 | 2.6 | 0.00 | 0.00 | 0.00 | 78 | 1020.5 |
| 20260905175947 | 79 | 129 | 0.0 | 1.7 | 0.00 | 0.00 | 0.00 | 79 | 1020.5 |
| 20260905175447 | 79 | 131 | 1.7 | 2.6 | 0.00 | 0.00 | 0.00 | 79 | 1020.7 |
| 20260905174943 | 79 | 7 | 0.9 | 5.2 | 0.00 | 0.00 | 0.00 | 80 | 1020.6 |
| 20260905174437 | 80 | 221 | 0.9 | 0.9 | 0.00 | 0.00 | 0.00 | 79 | 1020.7 |
| 20260905173933 | 79 | 137 | 0.0 | 2.6 | 0.00 | 0.00 | 0.00 | 80 | 1020.9 |
| 20260905173430 | 78 | 9 | 1.7 | 1.7 | 0.00 | 0.00 | 0.00 | 80 | 1021.0 |
| 20260905172925 | 78 | 80 | 1.7 | 2.6 | 0.00 | 0.00 | 0.00 | 81 | 1021.2 |
| 20260905172422 | 77 | 74 | 0.9 | 4.3 | 0.00 | 0.00 | 0.00 | 83 | 1021.2 |
| 20260905171918 | 78 | 112 | 0.9 | 2.6 | 0.00 | 0.00 | 0.00 | 82 | 1021.1 |
| 20260905171410 | 77 | 132 | 0.9 | 1.7 | 0.00 | 0.00 | 0.00 | 84 | 1020.9 |
| 20260905170905 | 76 | 163 | 0.0 | 2.6 | 0.00 | 0.00 | 0.00 | 84 | 1021.3 |
| 20260905170401 | 76 | 91 | 0.9 | 2.6 | 0.00 | 0.00 | 0.00 | 85 | 1020.9 |
| 20260905165901 | 75 | 357 | 1.7 | 2.6 | 0.00 | 0.00 | 0.00 | 86 | 1021.1 |
| 20260905165355 | 75 | 357 | 0.9 | 1.7 | 0.00 | 0.00 | 0.00 | 86 | 1021.0 |
| 20260905164850 | 75 | 135 | 2.6 | 5.2 | 0.00 | 0.00 | 0.00 | 86 | 1021.1 |
| 20260905164345 | 75 | 56 | 0.9 | 0.9 | 0.00 | 0.00 | 0.00 | 87 | 1021.3 |
| 20260905163840 | 74 | 133 | 0.9 | 0.9 | 0.00 | 0.00 | 0.00 | 89 | 1021.4 |
| 20260905163336 | 73 | 332 | 0.9 | 0.9 | 0.00 | 0.00 | 0.00 | 90 | 1021.3 |
| 20260905162832 | 73 | 232 | 0.9 | 0.9 | 0.00 | 0.00 | 0.00 | 90 | 1021.2 |